Weather History for Dansville, NY

Change the Weather History Date:

Wednesday, December 11, 2013

  Actual Average Record
Temperature  
Mean Temperature 19 °F -  
Max Temperature 28 °F 38 °F 58 °F (1971)
Min Temperature 9 °F 22 °F -6 °F (1977)
Degree Days  
Heating Degree Days 46    
Moisture  
Dew Point 17 °F    
Average Humidity 82    
Maximum Humidity 100    
Minimum Humidity 56    
Precipitation  
Precipitation 0.00 in - - ()
Sea Level Pressure  
Sea Level Pressure 30.19 in    
Wind  
Wind Speed 3 mph (NW)    
Max Wind Speed 13 mph    
Max Gust Speed 20 mph    
Visibility 5 miles    
Events Fog , Snow    
Averages and records for this station are not official NWS values.
T = Trace of Precipitation, MM = Missing Value Source: NWS Daily Summary

Daily Weather History Graph

Daily Weather History Graph

Search for Another Location

Airport:

Trip Planner

Search our weather history database for the weather conditions in past years. The results will help you decide how hot, cold, wet, or windy it might be!

Date:

Astronomy

Dec. 11, 2013 Rise Set
Actual Time 7:30 AM EST 4:37 PM EST
Civil Twilight 6:58 AM EST 5:09 PM EST
Nautical Twilight 6:23 AM EST 5:45 PM EST
Astronomical Twilight 5:49 AM EST 6:19 PM EST
Moon 1:15 PM EST (12/11) 1:44 AM EST (12/11)
Length of Visible Light 10h 10m
Length of Day
9h 06m
Waxing Gibbous, 71% of the Moon is Illuminated
Dec 11
Waxing Gibbous
Dec 17
Full
Dec 25
Last Quarter
Jan 1
New
Jan 7
First Quarter

Hourly Weather History & Observations

Time (EST) Temp. Windchill Dew Point Humidity Pressure Visibility Wind Dir Wind Speed Gust Speed Precip Events Conditions
12:18 AM 19.4 °F - 19.4 °F 100% 30.06 in 2.5 mi Calm Calm - 0.00 in Snow Light Snow
12:27 AM 19.4 °F - 19.4 °F 100% 30.06 in 1.5 mi Calm Calm - 0.00 in Snow Light Snow
12:39 AM 21.2 °F - 17.6 °F 86% 30.07 in 2.0 mi Calm Calm - 0.00 in Snow Light Snow
12:51 AM 21.2 °F - 19.4 °F 93% 30.07 in 1.5 mi Calm Calm - 0.00 in Snow Light Snow
12:54 AM 21.0 °F - 19.0 °F 92% 30.13 in 1.5 mi Calm Calm - 0.00 in Snow Light Snow
1:23 AM 21.2 °F - 19.4 °F 93% 30.08 in 3.0 mi Calm Calm - 0.00 in Snow Light Snow
1:39 AM 23.0 °F - 19.4 °F 86% 30.09 in 2.5 mi Calm Calm - 0.00 in Snow Light Snow
1:54 AM 24.1 °F - 18.0 °F 77% 30.15 in 2.5 mi Calm Calm - 0.00 in Snow Light Snow
2:14 AM 24.8 °F - 17.6 °F 74% 30.10 in 3.0 mi Calm Calm - 0.00 in Snow Light Snow
2:41 AM 24.8 °F 19.1 °F 17.6 °F 74% 30.10 in 9.0 mi Variable 4.6 mph - 0.00 in   Overcast
2:54 AM 25.0 °F 19.3 °F 16.0 °F 69% 30.17 in 10.0 mi West 4.6 mph - 0.00 in   Overcast
3:54 AM 25.0 °F - 16.0 °F 69% 30.17 in 9.0 mi Calm Calm - 0.00 in   Overcast
4:54 AM 21.9 °F - 19.0 °F 89% 30.20 in 3.0 mi Calm Calm - 0.00 in Snow Light Snow
5:54 AM 21.9 °F - 18.0 °F 85% 30.21 in 8.0 mi Calm Calm - 0.00 in   Overcast
6:54 AM 21.9 °F - 18.0 °F 85% 30.22 in 10.0 mi Calm Calm - 0.00 in   Overcast
7:54 AM 21.9 °F - 17.1 °F 82% 30.24 in 10.0 mi Calm Calm - N/A   Overcast
8:54 AM 23.0 °F - 17.1 °F 78% 30.25 in 9.0 mi Calm Calm - N/A   Overcast
9:54 AM 26.1 °F 19.4 °F 16.0 °F 66% 30.26 in 7.0 mi Variable 5.8 mph - N/A   Overcast
10:54 AM 28.0 °F 21.7 °F 15.1 °F 58% 30.24 in 10.0 mi Variable 5.8 mph 17.3 mph N/A   Scattered Clouds
11:54 AM 28.9 °F 21.9 °F 15.1 °F 56% 30.22 in 10.0 mi Variable 6.9 mph 16.1 mph N/A   Partly Cloudy
12:54 PM 28.9 °F 19.2 °F 16.0 °F 58% 30.21 in 8.0 mi SW 11.5 mph 19.6 mph N/A   Overcast
1:54 PM 27.0 °F 20.5 °F 18.0 °F 69% 30.20 in 3.0 mi Variable 5.8 mph - 0.00 in   Haze
2:04 PM 26.6 °F 22.6 °F 19.4 °F 74% 30.15 in 2.5 mi Variable 3.5 mph - 0.00 in Snow Light Snow
2:13 PM 26.6 °F 20.0 °F 19.4 °F 74% 30.15 in 4.0 mi Variable 5.8 mph - 0.00 in Snow Light Snow
2:26 PM 26.6 °F 19.1 °F 19.4 °F 74% 30.15 in 4.0 mi SW 6.9 mph - 0.00 in Snow Light Snow
2:54 PM 27.0 °F 21.6 °F 18.0 °F 69% 30.20 in 8.0 mi Variable 4.6 mph - 0.00 in   Overcast
3:54 PM 27.0 °F 20.5 °F 17.1 °F 66% 30.21 in 9.0 mi Variable 5.8 mph - N/A   Overcast
4:23 PM 24.8 °F 15.3 °F 19.4 °F 80% 30.17 in 2.0 mi NNW 9.2 mph - 0.00 in Snow Light Snow
4:36 PM 23.0 °F 11.7 °F 19.4 °F 86% 30.17 in 4.0 mi North 11.5 mph - 0.00 in Snow Light Snow
4:43 PM 23.0 °F 13.1 °F 19.4 °F 86% 30.17 in 6.0 mi North 9.2 mph - 0.00 in   Overcast
4:54 PM 23.0 °F 12.4 °F 19.9 °F 88% 30.23 in 8.0 mi North 10.4 mph - 0.00 in   Overcast
5:16 PM 23.0 °F 13.9 °F 19.4 °F 86% 30.18 in 5.0 mi NNW 8.1 mph - 0.00 in Snow Light Snow
5:23 PM 23.0 °F 13.1 °F 19.4 °F 86% 30.18 in 2.5 mi North 9.2 mph - 0.00 in Snow Light Snow
5:31 PM 23.0 °F 13.1 °F 19.4 °F 86% 30.18 in 2.5 mi North 9.2 mph - 0.00 in Snow Light Snow
5:50 PM 21.2 °F 12.6 °F 19.4 °F 93% 30.18 in 1.5 mi NNW 6.9 mph - 0.00 in Snow Light Snow
5:54 PM 21.9 °F 12.5 °F 19.9 °F 92% 30.24 in 1.2 mi North 8.1 mph - 0.00 in Snow Light Snow
6:41 PM 21.2 °F 9.5 °F 19.4 °F 93% 30.20 in 0.8 mi NNW 11.5 mph - 0.00 in Snow Light Snow
6:51 PM 21.2 °F 8.9 °F 19.4 °F 93% 30.20 in 0.2 mi NW 12.7 mph - 0.00 in Fog Light Freezing Fog
6:54 PM 21.0 °F 9.9 °F 19.0 °F 92% 30.26 in 0.2 mi WNW 10.4 mph 19.6 mph 0.00 in Fog Light Freezing Fog
7:03 PM 21.2 °F 14.9 °F 19.4 °F 93% 30.20 in 0.5 mi WNW 4.6 mph - 0.00 in Fog , Snow Snow
7:13 PM 21.2 °F 11.7 °F 19.4 °F 93% 30.21 in 1.0 mi NW 8.1 mph - 0.00 in Snow Light Snow
7:28 PM 21.2 °F 10.1 °F 17.6 °F 86% 30.21 in 2.0 mi NNW 10.4 mph - 0.00 in Snow Light Snow
7:35 PM 21.2 °F 10.9 °F 17.6 °F 86% 30.22 in 2.5 mi NNW 9.2 mph - 0.00 in Snow Light Snow
7:37 PM 21.2 °F 10.1 °F 17.6 °F 86% 30.22 in 3.0 mi NNW 10.4 mph - 0.00 in Snow Light Snow
7:54 PM 19.9 °F 11.1 °F 15.1 °F 81% 30.29 in 10.0 mi NNW 6.9 mph - 0.00 in   Overcast
8:21 PM 19.4 °F 9.5 °F 15.8 °F 86% 30.23 in 3.0 mi NNW 8.1 mph - 0.00 in Snow Light Snow
8:41 PM 17.6 °F 12.3 °F 14.0 °F 86% 30.23 in 9.0 mi NW 3.5 mph - 0.00 in   Mostly Cloudy
8:54 PM 17.1 °F - 14.0 °F 88% 30.30 in 9.0 mi Calm Calm - 0.00 in   Scattered Clouds
9:54 PM 14.0 °F - 9.0 °F 80% 30.32 in 10.0 mi Calm Calm - N/A   Partly Cloudy
10:54 PM 10.9 °F - 7.0 °F 84% 30.33 in 9.0 mi Calm Calm - N/A   Clear
11:54 PM 9.0 °F - 6.1 °F 88% 30.35 in 10.0 mi Calm Calm - N/A   Overcast